Lapse_Rate
4.9 4.6 5.3 4.6 4.6 4.2 5.0 4.8 4.9 4.9 5.0 5.3 5.1 5.3 5.4 5.4 5.6 5.7 5.3 5.3 5.6 5.2 5.3 5.1 5.1 5.0 4.9
3.9 4.5 4.7 4.9 4.9 4.9 4.9 4.7 5.0 5.3 5.1 5.3 5.4 5.3 5.5 5.4 5.6 5.6 5.2 5.4 5.7 5.4 5.4 5.1 5.2 5.1 5.0
3.6 3.5 4.6 4.8 4.7 4.8 4.8 4.3 5.4 5.0 5.7 5.6 5.6 5.6 5.8 5.5 5.7 5.6 5.6 5.7 5.6 5.5 5.5 5.1 5.3 5.1 5.2
4.8 4.3 3.3 4.5 4.9 4.6 5.0 5.0 5.0 5.0 5.4 5.3 6.1 6.0 6.1 5.8 5.7 5.7 5.8 5.8 5.5 5.7 5.5 5.2 5.2 5.2 5.2
4.8 4.7 4.3 3.8 4.5 4.2 4.5 5.1 4.9 4.5 5.3 5.5 5.3 6.1 6.5 6.3 5.9 5.7 5.8 5.8 5.8 5.6 5.6 5.4 5.1 5.2 5.3
5.7 5.2 5.0 4.4 4.2 4.1 4.1 4.6 5.2 5.3 5.0 5.5 5.3 5.6 5.9 6.4 6.1 5.7 5.7 6.1 5.9 5.6 5.7 5.4 5.1 5.1 5.2
6.3 5.9 5.3 5.2 4.4 4.1 3.9 4.2 4.6 4.9 5.2 5.2 5.2 5.0 5.5 6.0 6.0 6.1 5.9 6.1 5.8 5.5 5.8 5.5 5.1 5.1 5.0
6.3 6.1 5.8 5.4 5.0 4.1 4.4 3.9 4.8 4.6 4.8 5.2 5.1 5.2 5.3 5.7 6.0 6.2 6.0 6.0 5.7 5.5 5.7 5.4 5.1 4.9 4.9
6.8 6.3 6.2 6.0 5.2 4.8 5.0 3.8 4.3 4.6 4.8 5.0 5.2 4.7 4.8 5.3 5.8 6.0 5.8 5.6 5.4 5.4 5.3 5.3 5.0 4.8 4.8
7.6 7.1 6.6 6.3 6.1 5.1 5.1 4.3 4.1 4.2 4.6 4.7 4.6 4.5 4.6 4.5 5.5 5.9 5.5 5.5 5.0 5.1 5.3 5.2 4.8 4.6 4.7
8.2 8.0 7.1 6.5 6.2 5.6 5.3 4.9 4.1 3.3 5.0 4.7 4.6 4.5 4.3 4.4 4.8 5.2 5.0 4.6 4.7 4.8 5.2 4.9 4.6 4.6 4.6
8.5 8.2 7.5 7.1 6.5 6.2 5.1 4.9 4.7 3.8 4.0 4.0 4.3 4.7 4.7 4.2 4.4 4.5 5.1 4.9 4.4 4.4 4.1 4.7 4.5 4.4 4.4
8.2 8.6 7.6 7.3 6.9 6.6 5.9 5.0 4.6 3.9 3.5 3.9 4.4 4.5 4.4 4.1 3.7 4.3 3.7 3.7 3.6 4.5 4.1 4.6 4.0 4.1 4.3
7.9 8.2 8.1 7.2 7.3 6.6 6.3 5.0 4.5 4.0 3.4 3.8 3.9 4.2 4.5 4.8 4.0 4.1 3.6 3.8 3.6 3.9 3.9 4.2 3.9 4.1 4.3
7.7 8.0 8.0 7.3 7.3 7.0 6.2 5.2 4.3 4.4 4.3 3.7 3.7 4.0 4.7 4.4 4.4 4.3 4.2 3.6 3.5 3.8 3.4 3.7 3.5 4.0 4.3
7.2 7.6 7.7 7.5 7.0 7.3 6.6 5.7 4.6 4.6 4.7 4.2 3.7 3.6 4.1 4.4 4.2 4.1 3.9 3.1 3.6 3.3 3.3 3.2 3.1 4.1 4.3
6.8 7.1 7.2 7.3 6.9 6.9 6.8 5.9 4.5 4.4 4.4 3.9 4.0 3.6 3.6 4.3 4.5 4.3 4.0 3.8 3.4 3.1 2.9 3.2 3.0 4.1 4.1
Wind_Speed
6 11 4 4 7 13 16 16 18 27 26 28 30 28 21 20 18 15 13 11 9 7 5 2 0 1 5
10 8 8 4 4 6 8 15 15 17 24 27 29 28 25 23 21 18 16 14 12 9 6 4 2 2 4
8 7 5 1 3 3 4 10 13 15 19 24 27 28 28 26 23 22 20 17 14 11 8 5 5 4 4
8 9 7 2 2 5 7 3 4 7 13 17 21 25 28 27 25 24 22 19 16 13 10 7 7 6 5
9 8 8 6 5 5 6 3 3 6 3 6 11 15 18 24 23 26 24 21 18 15 12 11 9 7 7
9 10 11 10 7 7 9 4 5 2 5 6 8 6 11 16 22 25 25 21 19 17 14 12 11 9 8
13 12 12 10 11 11 9 6 6 3 1 3 2 5 7 15 24 26 24 22 20 18 16 15 14 12 9
13 13 10 12 13 13 12 13 4 2 4 4 2 2 3 11 19 23 23 22 20 19 17 17 15 14 11
24 29 27 27 24 9 10 8 9 2 4 1 1 1 2 3 11 20 22 22 21 20 18 18 17 15 12
12 19 23 24 26 14 10 11 8 2 4 5 3 3 2 3 3 12 16 20 21 21 19 19 20 17 11
11 11 10 9 10 14 16 13 9 9 5 6 3 2 2 1 1 3 11 11 14 18 20 20 19 18 8
10 10 11 10 10 13 18 21 20 12 9 15 4 5 4 3 3 3 2 6 12 9 13 18 18 16 13
10 10 10 9 15 12 18 22 25 22 15 20 7 6 6 3 4 5 6 6 10 6 11 11 10 13 6
10 10 10 10 11 9 10 11 10 9 11 18 19 8 6 3 3 6 5 6 8 7 7 7 11 12 10
10 10 10 10 11 9 9 11 11 9 6 5 8 10 2 5 3 6 8 3 9 8 6 5 4 10 11
10 8 9 11 11 10 9 9 12 9 9 5 5 3 1 1 3 7 5 5 7 9 6 6 4 8 12
10 9 8 10 14 10 10 10 11 10 8 5 8 8 10 11 3 10 7 5 9 8 7 2 4 6 11
Wind_Direction
299 317 279 247 242 258 250 241 244 242 229 223 228 228 215 208 205 208 209 203 207 214 222 171 233 26 39
314 311 307 307 275 278 277 247 242 246 237 225 223 222 216 211 206 209 211 199 204 203 201 182 180 123 57
295 297 294 313 311 285 277 253 244 246 245 233 224 219 215 212 207 206 208 198 197 189 191 183 176 137 90
297 298 302 313 275 292 291 287 272 235 247 242 228 220 213 211 207 204 206 197 195 184 185 181 171 146 117
298 298 306 305 323 317 282 268 264 224 224 236 225 214 217 209 204 203 201 194 191 185 183 179 167 156 134
302 295 297 301 305 304 284 285 302 152 231 237 207 204 201 197 192 194 195 190 187 183 182 178 169 161 146
292 289 293 303 299 294 306 271 268 289 166 265 231 222 197 197 190 191 186 187 183 184 179 176 173 160 157
300 292 289 311 304 301 292 291 288 219 215 238 209 249 187 203 196 185 182 184 181 183 179 177 173 160 164
301 307 306 304 300 301 287 264 277 259 208 181 208 152 262 192 204 186 185 183 183 185 180 176 171 161 169
297 299 296 292 287 281 286 264 253 278 200 197 171 153 249 218 174 185 187 189 184 183 183 179 172 157 165
292 295 293 291 285 281 277 277 247 241 188 183 191 178 108 265 133 160 173 183 184 184 184 183 178 170 160
293 292 293 290 285 281 283 284 263 249 210 189 205 179 147 174 197 154 151 179 170 167 166 181 178 180 178
286 286 284 289 293 287 280 275 268 253 214 196 206 191 195 175 180 176 159 204 184 167 169 173 171 174 162
288 290 289 289 285 281 282 284 262 243 227 206 206 183 198 174 156 171 171 174 175 173 162 155 160 173 171
283 286 284 285 283 282 280 292 261 242 228 203 209 200 134 150 161 186 178 146 175 160 157 161 168 181 184
279 283 297 300 296 296 289 288 287 240 230 186 177 152 105 338 209 174 176 146 164 164 148 165 180 191 189
281 277 284 287 287 280 279 286 297 265 226 187 191 196 203 219 154 222 162 146 151 168 160 134 162 186 180